Regional Weather Roundup
Issued by NWS San Angelo, TX

Home | Current Version | Previous Version | Graphics & Text | Print | Product List | Glossary Off
Versions: 1 2 3 4 5 6 7 8 9 10 11 12 13 14 15 16 17 18 19 20 21 22 23 24 25 26 27 28 29 30 31 32 33 34 35 36 37 38 39 40 41 42 43 44 45 46 47 48 49 50

000
ASUS44 KSJT 300310
RWRSJT
WEST CENTRAL TEXAS REGIONAL WEATHER ROUNDUP
NATIONAL WEATHER SERVICE SAN ANGELO TX
1000 PM CDT TUE JUL 29 2014

NOTE: "FAIR" INDICATES FEW OR NO CLOUDS BELOW 12,000 FEET WITH NO
SIGNIFICANT WEATHER AND/OR OBSTRUCTIONS TO VISIBILITY.

TXZ049-054-064>066-071>073-076>078-098-099-113-114-127-128-139-140-
154-155-168>170-300400
...LOCATIONS ACROSS WEST CENTRAL TEXAS...

CITY           SKY/WX    TMP DP  RH WIND       PRES   REMARKS
SAN ANGELO     MOCLDY    84  67  56 E12G21    30.06R
ABILENE        CLOUDY    75  66  73 S18       30.08S
DYESS AFB      LGT RAIN  74  69  84 SE20      30.05F
JUNCTION       PTCLDY    84  68  58 E12       30.06R
SWEETWATER     CLOUDY    73  70  88 SE9       30.12S
BROWNWOOD      CLOUDY    82  57  42 E7        30.08R
COLEMAN        CLOUDY    83  61  47 E6        30.10R
SONORA         CLEAR     90  50  25 SE7       30.10R
OZONA          FAIR      86  48  26 S9        30.09R
BRADY          CLEAR     79  66  65 E8        30.09R
$$

TEXAS PANHANDLE/OKLAHOMA PANHANDLE

CITY           SKY/WX    TMP DP  RH WIND       PRES   REMARKS
AMARILLO       CLOUDY    70  61  73 SE13      30.15R
BORGER         CLOUDY    72  62  71 SE13G21   30.13R
CANADIAN       DRIZZLE   71  64  78 CALM      30.11R
DALHART        MOCLDY    72  63  73 SE13      30.15R
DUMAS          MOCLDY    71  63  76 SE8       30.14R
GUYMON         NOT AVBL
HEREFORD       CLOUDY    73  67  81 SE10      30.16S
PAMPA          MOCLDY    68  62  80 SE14      30.16R
PERRYTON       PTCLDY    68  63  83 SE9       30.12R
$$

SOUTHERN PANHANDLE/SOUTH PLAINS/ROLLING PLAINS

CITY           SKY/WX    TMP DP  RH WIND       PRES   REMARKS
LUBBOCK        MOCLDY    75  63  66 SE13      30.12R
SNYDER         LGT RAIN  73  69  88 E10       30.11S
CHILDRESS      CLOUDY    73  66  78 SE8       30.09R
SEMINOLE       PTCLDY    80  61  52 E15G22    30.11R
$$

PERMIAN BASIN

CITY           SKY/WX    TMP DP  RH WIND       PRES   REMARKS
MIDLAND        PTCLDY    82  65  56 E17       30.07R
ODESSA           N/A     85  61  44 E10       30.07R
WINK           PTCLDY    91  48  22 SE13      30.01R
$$

FAR WEST/SOUTHWEST MOUNTAINS/TRANS PECOS

CITY           SKY/WX    TMP DP  RH WIND       PRES   REMARKS
ALPINE         PTCLDY    82  53  37 SE13G18   30.20R
DRYDEN           N/A     92  49  22 E10       30.03R
EL PASO        MOCLDY    82  63  51 CALM        N/A
FORT STOCKTON  CLEAR     87  48  25 SE16G23   30.07R
GUADALUPE PASS MOCLDY    76  56  49 NE15      30.24R
MARFA          PTCLDY    77  48  36 SE9       30.19R
PECOS          CLEAR     90  51  26 E14G20    30.00R
$$

DALLAS/FORT WORTH METROPLEX

CITY           SKY/WX    TMP DP  RH WIND       PRES   REMARKS
DFW AIRPORT    MOCLDY    77  61  57 S3        30.05S
FTW MEACHAM    MOCLDY    78  56  46 SE3       30.06R
DAL-EXECUTIVE  MOCLDY    75  66  73 CALM      30.06R
GRAND PRAIRIE  MOCLDY    77  62  59 CALM      30.07R
ADDISON        NOT AVBL
MESQUITE       MOCLDY    74  68  80 SE3       30.06
LANCASTER      MOCLDY    73  65  74 CALM      30.07R
$$

NORTH CENTRAL TEXAS

CITY           SKY/WX    TMP DP  RH WIND       PRES   REMARKS
SHRMAN/DENISON CLOUDY    80  63  55 CALM      30.07S
GAINESVILLE    PTCLDY    76  60  57 CALM      30.09R
BRIDGEPORT     MOCLDY    72  65  80 CALM      30.10R
DENTON         MOCLDY    74  62  66 CALM      30.06R
WAXAHACHIE     MOCLDY    74  62  66 CALM      30.08R
GRANBURY       MOCLDY    78  64  62 E3        30.09R
$$

WESTERN NORTH TEXAS

CITY           SKY/WX    TMP DP  RH WIND       PRES   REMARKS
WICHITA FALLS  MOCLDY    74  66  76 SE3       30.07R
VERNON         CLOUDY    76  66  72 E3        30.08R
BRECKENRIDGE   CLOUDY    85  55  35 SE7       30.07R
COMANCHE       CLOUDY    79  58  48 SE7       30.08S
$$

CENTRAL AND SOUTH CENTRAL TEXAS

CITY           SKY/WX    TMP DP  RH WIND       PRES   REMARKS
AUSTIN/BERGSTM PTCLDY    83  69  62 E3        30.04R
WACO           PTCLDY    77  57  50 CALM      30.06R
HILLSBORO      MOCLDY    76  62  61 E5        30.07R
TEMPLE         MOCLDY    81  64  57 E6        30.06S
KILLEEN-GRAY   PTCLDY    82  68  61 E8        30.07R
FORT HOOD      MOCLDY    83  69  62 E3        30.06S
GEORGETOWN     NOT AVBL
LAGO VISTA     MOCLDY    83  69  64 E8        30.08R
SAN MARCOS     PTCLDY    84  66  54 E8        30.05R
NEW BRAUNFELS  PTCLDY    87  69  54 SE17      30.02R
RANDOLPH AFB   CLEAR     88  68  52 E16G23    30.03R
SAN ANTONIO    MOCLDY    89  69  51 E12       30.02R
STINSON        CLEAR     87  63  44 SE8       29.99R
PLEASANTON     NOT AVBL
LA GRANGE      PTCLDY    84  74  70 CALM      30.02R
GIDDINGS       PTCLDY    81  71  72 CALM      30.08R
$$

EAST TEXAS

CITY           SKY/WX    TMP DP  RH WIND       PRES   REMARKS
PARIS          PTCLDY    79  63  57 SE7       30.07R
CLARKSVILLE    CLEAR     80  66  63 CALM      30.07R
TYLER          PTCLDY    82  69  64 CALM      30.06R
LONGVIEW       CLEAR     78  68  71 CALM      30.06R
PALESTINE      NOT AVBL
NACOGDOCHES    MOCLDY    75  73  94 CALM      30.06R
$$

TEXAS HILL COUNTRY AND EDWARDS PLATEAU

CITY           SKY/WX    TMP DP  RH WIND       PRES   REMARKS
LLANO          PTCLDY    81  68  65 SE3       30.09S
HORSESHOE BAY  FAIR      81  67  62 SE5       30.06S
KERRVILLE      PTCLDY    84  60  43 E7        30.07R
FREDERICKSBRG  MOCLDY    82  68  63 E7        30.09R
ROCKSPRINGS    CLEAR     82  52  34 SE7       30.11R
HONDO          CLEAR     84  59  42 E6        30.02R
UVALDE         CLEAR     88  58  36 E5        30.01R
DEL RIO        CLEAR     93  55  27 E12       29.96R
$$

SOUTHEAST TEXAS

CITY           SKY/WX    TMP DP  RH WIND       PRES   REMARKS
COLLEGE STN    CLEAR     82  70  66 E7        30.04R
CALDWELL       CLEAR     81  72  74 CALM      30.07R
CROCKETT       MOCLDY    81  79  94 NE3       30.08R
BRENHAM        PTCLDY    80  73  80 CALM      30.04S
HUNTSVILLE     MOCLDY    81  70  69 CALM      30.05R
CONROE         PTCLDY    78  75  90 CALM      30.05R
HOUSTON BUSH   PTCLDY    77  74  90 E5        30.02S
HOUSTON HOBBY  PTCLDY    77  73  87 S3        30.02R
PERLAND        PTCLDY    80  73  79 CALM      30.04R
WHARTON        MOCLDY    76  73  90 CALM      30.04R
$$

THE UPPER TEXAS COAST

CITY           SKY/WX    TMP DP  RH WIND       PRES   REMARKS
ORANGE         CLEAR     78  71  78 CALM      30.05R
PORT ARTHUR    CLEAR     81  69  67 NE5       30.03R
GALVESTON      MOCLDY    80  74  81 CALM      30.04R
ANGLETON       MOCLDY    75  74  96 N3        30.03R
BAY CITY       CLOUDY    76  76 100 CALM      30.02R
$$

TEXAS COASTAL BEND, RIO GRANDE PLAINS DEEP SOUTH TEXAS

CITY           SKY/WX    TMP DP  RH WIND       PRES   REMARKS
VICTORIA       PTCLDY    82  71  69 S7        30.03R
BEEVILLE       FAIR      82  69  66 S6        30.01R
ROCKPORT       PTCLDY    83  75  77 SE10      30.00R
PORT ARANSAS   PTCLDY    80  76  86 SE8       30.01R
PORT LAVACA    PTCLDY    79  74  84 SE5       30.02R
CORPUS CHRISTI PTCLDY    82  74  76 SE13      30.00R
KINGSVILLE NAS PTCLDY    82  76  81 SE9       30.01R
COTULLA        CLEAR     92  62  36 SE20G26   29.97R
LAREDO         CLEAR     92  69  46 E18G32    29.98R
BROWNSVILLE    CLEAR     81  76  84 SE7       30.01R
PORT ISABEL    CLEAR     83  75  77 SE10      30.01R
HEBBRONVILLE   CLEAR     86  67  52 E14G21    30.02R
MCALLEN        CLEAR     85  72  65 SE17      30.00R
WESLACO        NOT AVBL
FALFURRIAS     CLEAR     77  69  76 E8        30.00R
EDINBURG       CLEAR     86  70  59 SE12      30.00R
$$


USA.gov is the U.S. government's official web portal to all federal, state and local government web resources and services.